Monte Cimone, Italy

12:42 AM CET on February 13, 2016 (GMT +0100)
Monte Cimone

Weather History for LIVC - May, 2013

Change the Weather History Date:

Friday, May 17, 2013

  Actual Average Record
Temperature  
Mean Temperature 36 °F -  
Max Temperature 40 °F 46 °F 57 °F (2000)
Min Temperature 33 °F 38 °F 26 °F (1998)
Degree Days  
Heating Degree Days 28    
Moisture  
Dew Point 35 °F    
Average Humidity 94    
Maximum Humidity 100    
Minimum Humidity 84    
Precipitation  
Precipitation 0.02 in 0.08 in - ()
Sea Level Pressure  
Sea Level Pressure 29.67 in    
Wind  
Wind Speed 22 mph ()    
Max Wind Speed 31 mph    
Max Gust Speed -    
Visibility 1.0 miles    
Events Fog , Rain    
Averages and records for this station are not official NWS values.
T = Trace of Precipitation, MM = Missing Value Source: Averaged Metar Reports

Daily Weather History Graph

Daily Weather History Graph

Search for Another Location

Airport or City:

Trip Planner

Search our weather history database for the weather conditions in past years. The results will help you decide how hot, cold, wet, or windy it might be!

Date:

Astronomy

May. 17, 2013 Rise Set
Actual Time 5:48 AM CEST 8:39 PM CEST
Civil Twilight 5:14 AM CEST 9:13 PM CEST
Nautical Twilight 4:31 AM CEST 9:56 PM CEST
Astronomical Twilight 3:41 AM CEST 10:46 PM CEST
Moon 12:09 PM CEST (5/17) 1:18 AM CEST (5/17)
Length of Visible Light 15h 58m
Length of Day
14h 50m
Waxing Crescent, 42% of the Moon is Illuminated
May 17
Waxing Crescent
May 18
First Quarter
May 25
Full
May 31
Last Quarter
Jun 8
New

Hourly Weather History & Observations

Time (CEST) Temp. Windchill Dew Point Humidity Pressure Visibility Wind Dir Wind Speed Gust Speed Precip Events Conditions
12:55 AM 37.4 °F 26.9 °F 37.4 °F 100% 29.62 in 0.0 mi SSW 20.7 mph - N/A Fog Fog
1:55 AM 39.2 °F 29.0 °F 37.4 °F 93% 29.62 in 0.0 mi SW 21.9 mph - N/A Fog Fog
2:00 AM 38 °F - 37 °F 96%  in 0 mi SW 21.9 mph - - Fog Heavy Fog
2:55 AM 39.2 °F 29.3 °F 37.4 °F 93% 29.59 in 0.0 mi SSW 20.7 mph - N/A Fog Fog
3:55 AM 39.2 °F 27.4 °F 37.4 °F 93% 29.56 in 0.0 mi SSW 29.9 mph - N/A Fog Fog
4:55 AM 39.2 °F 27.8 °F 37.4 °F 93% 29.56 in 0.0 mi SSW 27.6 mph - N/A Fog , Rain Light Rain
5:55 AM 37.4 °F 25.2 °F 37.4 °F 100% 29.56 in 0.0 mi SSW 28.8 mph - N/A Fog , Rain Light Rain
6:55 AM 37.4 °F 25.6 °F 35.6 °F 93% 29.59 in 0.0 mi SSW 26.5 mph - N/A Fog , Rain Light Rain
7:55 AM 37.4 °F 25.4 °F 35.6 °F 93% 29.62 in 0.0 mi SSW 27.6 mph - N/A Fog , Rain Light Rain
8:00 AM 37 °F - 36 °F 93%  in 0 mi SSW 27.6 mph - - Rain Light Rain
8:55 AM 37.4 °F 25.2 °F 35.6 °F 93% 29.62 in 0.0 mi SSW 28.8 mph - N/A Fog , Rain Light Rain
9:55 AM 37.4 °F 26.1 °F 35.6 °F 93% 29.62 in 0.0 mi SSW 24.2 mph - N/A Fog , Rain Light Rain
10:55 AM 41.0 °F 33.5 °F 39.2 °F 93% 29.65 in 0.0 mi West 13.8 mph - N/A Fog , Rain Light Rain
11:55 AM 37.4 °F 26.9 °F 37.4 °F 100% 29.65 in 0.0 mi West 20.7 mph - N/A Fog Fog
12:55 PM 37.4 °F 27.5 °F 35.6 °F 93% 29.68 in 0.0 mi West 18.4 mph - N/A Fog Fog
1:55 PM 37.4 °F 26.4 °F 35.6 °F 93% 29.65 in 0.0 mi WSW 23.0 mph - N/A Fog Fog
2:00 PM 37 °F - 36 °F 96%  in 0 mi WSW 23.0 mph - - Fog Heavy Fog
2:55 PM 37.4 °F 25.6 °F 35.6 °F 93% 29.65 in 0.0 mi WSW 26.5 mph - N/A Fog Fog
3:55 PM 35.6 °F 22.7 °F 35.6 °F 100% 29.68 in 0.0 mi WSW 28.8 mph - N/A Fog Fog
4:55 PM 35.6 °F 23.4 °F 35.6 °F 100% 29.71 in 0.3 mi WSW 25.3 mph - N/A Fog Fog
5:55 PM 35.6 °F 23.2 °F 32.0 °F 87% 29.71 in 6.2 mi WSW 26.5 mph - N/A   Scattered Clouds
6:55 PM 35.6 °F 22.3 °F 32.0 °F 87% 29.71 in 6.2 mi WSW 31.1 mph - N/A   Scattered Clouds
7:55 PM 35.6 °F 22.7 °F 32.0 °F 87% 29.74 in 6.2 mi WSW 28.8 mph - N/A   Scattered Clouds
8:00 PM 35 °F - 32 °F 84%  in 9 mi WSW 28.8 mph - -   Partly Cloudy
8:55 PM 33.8 °F 20.8 °F 33.8 °F 100% 29.77 in 0.0 mi WSW 26.5 mph - N/A Fog Fog
9:55 PM 33.8 °F 21.3 °F 33.8 °F 100% 29.80 in 0.0 mi WSW 24.2 mph - N/A Fog Fog
10:55 PM 33.8 °F 22.8 °F 33.8 °F 100% 29.83 in 0.0 mi WSW 18.4 mph - N/A Fog Fog
11:55 PM 33.8 °F 22.2 °F 33.8 °F 100% 29.83 in 0.0 mi WSW 20.7 mph - N/A Fog Fog